Simultaneous Nadir Overpasses (SNOs) Predictions

Prediction of SNOs between NOAA-20 and AQUA Satellite Orbit:

Table of predicted SNOs for the next 14.0 days since TLE Epoch: 12/10/2022
Index Date (NOAA-20) Time (NOAA-20) Lat,Lon (NOAA-20) SZA (NOAA-20 ) Date (AQUA) Time (AQUA) Lat,Lon (AQUA) SZA (AQUA ) Distance(km) Time Diff (sec)
1 12/10/2022 21:52:15 -79.46, -71.59 65.29 12/10/2022 21:53:11 -79.46, -71.63 65.32 0.73 56
2 12/10/2022 22:42:53 79.68, 97.53 114.38 12/10/2022 22:42:30 79.68, 97.60 114.38 1.60 23
3 12/13/2022 13:18:28 79.43,-123.38 115.01 12/13/2022 13:19:11 79.44,-123.24 114.95 3.10 43
4 12/13/2022 14:09:02 -79.80, 47.11 65.59 12/13/2022 14:08:28 -79.80, 47.01 65.55 2.04 34
5 12/16/2022 04:44:38 -79.50,-174.40 64.90 12/16/2022 04:45:09 -79.51,-174.28 64.94 2.38 31
6 12/16/2022 05:35:12 79.83, -4.14 114.56 12/16/2022 05:34:25 79.82, -4.25 114.61 2.43 47
7 12/18/2022 20:10:45 79.66, 135.40 115.00 12/18/2022 20:11:03 79.65, 135.31 115.00 1.95 18
8 12/18/2022 21:01:24 -79.86, -55.44 65.35 12/18/2022 21:00:24 -79.86, -55.46 65.30 0.41 60
9 12/21/2022 11:36:59 -79.62, 83.53 64.85 12/21/2022 11:37:03 -79.63, 83.66 64.88 2.85 4
10 12/21/2022 12:27:06 80.64, -97.56 113.16 12/21/2022 12:25:52 80.78, -97.80 113.25 16.06 74
11 12/24/2022 02:12:32 -79.43,-136.90 64.51 12/24/2022 02:13:40 -79.44,-136.80 64.58 2.25 68



Historial Predications of SNOs between NOAA-20 and AQUA
